Home > Weather > Lawrence > Past weeks

Flag for USA Past Weather in Lawrence, Kansas, USA — Yesterday and Last 2 Weeks

Now
81 °F

Mostly cloudy.


Feels Like: 85 °F
Forecast: 67 / 78 °F
Wind: 8 mph from Southeast

Location: Lawrence Municipal Airport

Current Time: Aug 26, 2016 at 3:12:53 PM

Latest Report: Aug 26, 2016 at 1:52 PM


Visibility: 10 mi

Pressure: 30.04 "Hg

Humidity: 69%

Dew Point: 70 °F

Location of LawrenceLocation

Past Weather in Lawrence — Graph

°F

Lawrence Temperature Yesterday

Maximum temperature yesterday: 83 °F (at 2:52 PM)
Minimum temperature yesterday: 70 °F (at 12:59 AM)
Average temperature yesterday: 75 °F

High & Low Weather Summary for the Past Weeks

 TemperatureHumidityPressure
High98 °F (Aug 11, 2:52 PM)100% (Aug 12, 5:03 AM)30.13 "Hg (Aug 12, 5:03 AM)
Low52 °F (Aug 21, 2:52 AM)37% (Aug 14, 3:52 PM)29.71 "Hg (Aug 19, 5:52 PM)
Average74 °F79%29.97 "Hg
* Reported Aug 11 1:52 PM — Aug 26 1:52 PM, Lawrence, Weather by CustomWeather, © 2016

Note: Actual official high and low records may vary slightly from our data, if they occured in-between our weather recording intervals... More about our weather records

Advertising

Lawrence Weather History for the Previous 24 Hours

Scroll right to see more
 ConditionsComfort  
Time TempWeatherWind HumidityBarometerVisibility
1:52 PM
Fri, Aug 26
81 °FMostly cloudy.8 mph69%30.04 "Hg10 mi
12:52 PM79 °FPartly sunny.10 mph74%30.04 "Hg10 mi
11:52 AM77 °FMostly cloudy.10 mph79%30.06 "Hg10 mi
10:52 AM74 °FPartly sunny.8 mph91%30.08 "Hg10 mi
9:52 AM72 °FScattered clouds.10 mph93%30.08 "Hg10 mi
8:52 AM70 °FMostly cloudy.9 mph97%30.09 "Hg9 mi
7:52 AM69 °FPartly sunny.3 mph100%30.09 "Hg9 mi
6:52 AM68 °FPassing clouds.6 mph100%30.09 "Hg10 mi
6:04 AM69 °FPassing clouds.6 mph96%30.09 "Hg10 mi
5:52 AM69 °FPassing clouds.No wind96%30.08 "Hg10 mi
4:52 AM69 °FPassing clouds.6 mph100%30.06 "Hg10 mi
3:52 AM70 °FFog.3 mph100%30.06 "Hg3 mi
2:52 AM69 °FFog.5 mph96%30.07 "Hg5 mi
2:01 AM70 °FPassing clouds.10 mph90%30.08 "Hg10 mi
12:52 AM71 °FLight rain. Passing clouds.5 mph87%30.06 "Hg10 mi
11:52 PM
Thu, Aug 25
72 °FLight rain. Passing clouds.6 mph87%30.06 "Hg10 mi
10:52 PM72 °FLight rain. Mostly cloudy.3 mph87%30.07 "Hg10 mi
9:52 PM73 °FLight rain. Passing clouds.No wind88%30.06 "Hg10 mi
8:52 PM73 °FLight rain. Passing clouds.3 mph90%30.05 "Hg10 mi
7:52 PM76 °FBroken clouds.5 mph82%30.04 "Hg10 mi
6:52 PM78 °FPartly sunny.8 mph76%30.00 "Hg10 mi
5:52 PM80 °FPassing clouds.9 mph74%30.01 "Hg10 mi
4:52 PM81 °FCloudy.9 mph72%30.01 "Hg10 mi
3:52 PM83 °FPartly sunny.3 mph63%30.01 "Hg10 mi
Weather by CustomWeather, © 2016

See weather overviewHow to use our weather pages